Flag for USA

Past Weather in Woodbridge at Rocky Creek, Florida, USA — Yesterday and Last 2 Weeks

Now
78 °F

Passing clouds.


Feels Like: 81 °F
Forecast: 90 / 76 °F
Wind: No wind

Location: Tampa International Airport

Current Time: Jul 17, 2019 at 6:53:12 am

Latest Report: Jul 17, 2019 at 5:53 am


Visibility: 10 mi

Pressure: 30.09 "Hg

Humidity: 87%

Dew Point: 74 °F

Location of Woodbridge at Rocky CreekLocation

Past Weather in Woodbridge at Rocky Creek — Graph

°F

Woodbridge at Rocky Creek Temperature Yesterday

Maximum temperature yesterday: 92 °F (at 12:53 pm)
Minimum temperature yesterday: 77 °F (at 8:53 pm)
Average temperature yesterday: 83 °F

High & Low Weather Summary for the Past Weeks

 TemperatureHumidityPressure
High93 °F (Jul 5, 1:53 pm)94% (Jul 6, 4:53 am)30.16 "Hg (Jul 6, 4:53 am)
Low74 °F (Jul 12, 8:53 pm)44% (Jul 5, 1:53 pm)29.90 "Hg (Jul 8, 6:53 pm)
Average82 °F77%30.02 "Hg
* Reported Jul 2 4:53 am — Jul 17 4:53 am, Woodbridge at Rocky Creek. Weather by CustomWeather, © 2019

Note: Actual official high and low records may vary slightly from our data, if they occured in-between our weather recording intervals... More about our weather records

Advertising

Woodbridge at Rocky Creek Weather History for the Previous 24 Hours

Scroll right to see more
 ConditionsComfort  
Time TempWeatherWind HumidityBarometerVisibility
4:53 am
Wed, Jul 17
78 °FPassing clouds.No wind87%30.08 "Hg10 mi
3:53 am77 °FPassing clouds.No wind90%30.09 "Hg10 mi
2:53 am78 °FPassing clouds.No wind84%30.10 "Hg10 mi
1:53 am77 °FPassing clouds.No wind90%30.12 "Hg10 mi
12:53 am78 °FPassing clouds.3 mph84%30.13 "Hg10 mi
11:53 pm
Tue, Jul 16
78 °FPassing clouds.No wind87%30.13 "Hg10 mi
10:53 pm79 °FPartly cloudy.5 mph79%30.12 "Hg10 mi
9:53 pm77 °FPassing clouds.5 mph85%30.12 "Hg10 mi
9:35 pm77 °FThundershowers. Passing clouds.3 mph82%30.10 "Hg10 mi
8:53 pm77 °FThunderstorms. Partly cloudy.No wind82%30.12 "Hg8 mi
7:53 pm80 °FThunderstorms. Cloudy.8 mph81%30.12 "Hg1 mi
6:53 pm87 °FThunderstorms. Broken clouds.6 mph65%30.07 "Hg10 mi
6:42 pm84 °FThunderstorms. Broken clouds.9 mph70%30.08 "Hg10 mi
5:53 pm89 °FThunderstorms. Broken clouds.10 mph65%30.06 "Hg10 mi
4:53 pm84 °FLight rain. Broken clouds.No wind74%30.08 "Hg9 mi
4:34 pm82 °FThunderstorms. Partly sunny.8 mph79%30.08 "Hg4 mi
3:53 pm92 °FBroken clouds.12 mph52%30.08 "Hg10 mi
2:53 pm91 °FPartly sunny.9 mph56%30.10 "Hg10 mi
1:53 pm91 °FBroken clouds.9 mph60%30.12 "Hg10 mi
12:53 pm92 °FBroken clouds.3 mph56%30.14 "Hg10 mi
11:53 am89 °FPassing clouds.3 mph61%30.14 "Hg10 mi
10:53 am88 °FPassing clouds.No wind65%30.15 "Hg10 mi
9:53 am86 °FPassing clouds.5 mph72%30.14 "Hg10 mi
8:53 am83 °FPassing clouds.8 mph79%30.14 "Hg10 mi
7:53 am82 °FPassing clouds.5 mph82%30.12 "Hg10 mi
6:53 am80 °FPassing clouds.5 mph87%30.10 "Hg10 mi
Weather by CustomWeather, © 2019

See weather overview